Погода в Каменке

Россия / Санкт-Петербург и Ленинградская область     60°26′46″N   29°05′12″E
темп.,
°C
ветер,
м/с
пор.,
м/с
влажн.,
%
обл.,
%
осадки,
мм/ч
давл.,
гПа
погр.,
м
2 декабря, чт
чт200:00−8зсз38875 0.0 992256
03:00−10зсз269151 0.0 993129
06:00−11зсз119542 0.0 99410
09:00−12вюв0096100 0.0 99410
12:00−9в1185100 0.0 99551
15:00−9всв2487100 0.0 99498
18:00−10всв2793100 0.0 995140
21:00−11всв269245 0.0 995114
3 декабря, пт
пт300:00−11св279662 0.0 995124
03:00−10св3109477 0.0 995214
06:00−9св3109488 0.0 995223
09:00−9св31194100 0.0 995250
12:00−6св41088100 0.0 996591
15:00−5св51183100 0.0 995733
18:00−5св51283100 0.0 996726
21:00−5ссв51291100 0.2 996833
4 декабря, сб
сб400:00−6ссв51291100 0.4 997752
03:00−8с5129196 0.6 999547
06:00−10с4109298 0.2 1001366
09:00−10с4108976 0.3 1003360
12:00−10с388781 0.0 1005312
15:00−11ссв388977 0.0 1007302
18:00−12ссв389272 0.0 1010243
21:00−12ссв389457 0.0 1012215
5 декабря, вс
вс500:00−11ссв389596 0.0 1014234
03:00−11ссв399573 0.0 1016258
06:00−10св399687 0.0 1017299
09:00−9св389292 0.1 1018399
12:00−9всв3892100 0.1 1020433
15:00−8всв3792100 0.4 1020748
18:00−10всв399197 0.1 1021707
21:00−10в3109299 0.2 1022618
6 декабря, пн
пн600:00−10в4118992 0.1 1022610
03:00−10в41290100 0.1 1022515
06:00−9в51292100 0.4 1021541
09:00−8в41292100 0.9 1021541
12:00−7в41192100 0.5 1021526
15:00−7в41092100 1.1 1020498
18:00−7в3891100 0.3 1020442
21:00−8в379492 0.4 1020326